STARLINK-36198, 67167

Orbit data source: Space-Track

STARLINK-36198, 67167 is a payload satellite owned by SpaceX/Seattle (US) in LEO that was launched on Wed, 17 Dec 2025 UTC via an FALCON 9 launch vehicle from the Air Force Eastern Test Range (AFETR). Payload-class satellites include a variety of spacecraft equipped with specific instruments for various scientific and technological missions. These include communications satellites like Starlink; space stations such as the ISS; scientific satellites like the Hubble; Earth observation satellites from companies like Planet Labs, Umbra, and HawkEye 360; GPS; miniature CubeSats for education and research; and military/defense satellites.

Loading next visibility...
Identifier
67167, 2025-303E
Orbit
LEO
Country
Flag of USUS
Related business
Manufacturer
SpaceX/Seattle
Mission
Operational Commercial Communications
Bus & Motor
STARLINK V2MO, Unknown motor
Mass
575 kg wet, ~530 kg dry
Launch date (UTC)
2025-12-17 (6 months ago)
Launch vehicle
FALCON 9
Launch site
Air Force Eastern Test Range (AFETR)
Object type
Payload
Rocket body
Debris
Shape & HBR
Box + 2 Pan, 17.7 m
Radar Cross Section
36.964 m², Large (>1 m²)

Expand to show TLE details & history
Last TLE update: 18 hours ago

TLE from 18 hours ago
0 STARLINK-36198
1 67167U 25303E   26171.16865699  .00022048  00000-0  80874-3 0  9993
2 67167  43.0031  92.3467 0001414 278.9740  81.0951 15.27563930 28407
Epoch: 2026-06-20T04:02Z
TLE epoch observation values (Epoch: 2026-06-20T04:02:51.963Z)
Latitude
-0.00008°
Longitude
123.24296°
Altitude
482.723 km
Speed
7.626 km/s
True Right ascension
06h 09m 23s
True Declination
0° 00' 00"
Sunlit
Object was in daylight at epoch
Visualization orbit readout
Latitude
Unknown
Longitude
Unknown
Altitude
Unknown
Speed
Unknown
Apparent Right ascension
Unknown
Apparent Declination
Unknown
Sunlit
N/A
Visualization observer readout
Local Sidereal Time
08:33:07
Azimuth
Unknown
Elevation
Unknown
Doppler factor
Unknown
Orbital elements
Apogee altitude
486.012 km
Perigee altitude
484.071 km
Semi-major axis
6,863.179 km
Eccentricity
0.00014
Inclination
43.0031°
RAAN
92.3467°
Arg. of periapsis
278.974°
True anomaly
81.11111°
Mean anomaly
81.0951°
Eccentric anomaly
81.1031°
Mean motion
3.81729 °/min
Orbital period
94.31 mins
BSTAR
0.00080874
Loading maneuver chart data...
Computing Atmospheric mass density...
Loading historical data...
Loading historical data...
Loading historical data...
Loading historical data...
Loading historical data...
Loading historical data...
Loading historical data...

Documentation

Showing up to 5 results
|